Weather History for KBTR - September, 2014

Change the Weather History Date:

Saturday, September 20, 2014

  Actual Average Record
Temperature  
Mean Temperature 79 °F 78 °F  
Max Temperature 89 °F 88 °F 98 °F (2005)
Min Temperature 69 °F 67 °F 49 °F (1938)
Degree Days  
Heating Degree Days 0 0  
Month to date heating degree days 0 0  
Since 1 July heating degree days 0 0  
Cooling Degree Days 14 13  
Month to date cooling degree days 331 300  
Year to date cooling degree days 2359 2461  
Growing Degree Days 28 (Base 50)    
Moisture  
Dew Point 69 °F    
Average Humidity 74    
Maximum Humidity 97    
Minimum Humidity 50    
Precipitation  
Precipitation 0.00 in 0.14 in 2.77 in (1932)
Month to date precipitation 3.00 3.12  
Year to date precipitation 50.12 44.83  
Snow  
Snow 0.00 in - - ()
Month to date snowfall 0.0  
Since 1 July snowfall 0.0  
Since 1 September snowfall 0.0  
Snow Depth 0.00 in    
Sea Level Pressure  
Sea Level Pressure 29.97 in    
Wind  
Wind Speed 7 mph (NE)    
Max Wind Speed 17 mph    
Max Gust Speed 22 mph    
Visibility 10 miles    
Events      
T = Trace of Precipitation, MM = Missing Value Source: NWS Daily Summary

Daily Weather History Graph

Daily Weather History Graph

Search for Another Location

Airport or City:

Trip Planner

Search our weather history database for the weather conditions in past years. The results will help you decide how hot, cold, wet, or windy it might be!

Date:

Astronomy

Sep. 20, 2014 Rise Set
Actual Time 6:51 AM CDT 7:03 PM CDT
Civil Twilight 6:27 AM CDT 7:27 PM CDT
Nautical Twilight 5:59 AM CDT 7:55 PM CDT
Astronomical Twilight 5:31 AM CDT 8:23 PM CDT
Moon 3:42 AM CDT (9/20) 4:58 PM CDT (9/20)
Length of Visible Light 12h 59m
Length of Day
12h 11m
Waning Crescent, 11% of the Moon is Illuminated
Sep 20
Waning Crescent
Sep 24
New
Oct 1
First Quarter
Oct 8
Full
Oct 15
Last Quarter

Hourly Weather History & Observations

Time (CDT) Temp. Heat Index Dew Point Humidity Pressure Visibility Wind Dir Wind Speed Gust Speed Precip Events Conditions
12:53 AM 72.0 °F - 70.0 °F 93% 29.95 in 9.0 mi NNE 3.5 mph - N/A   Clear
1:53 AM 71.1 °F - 69.1 °F 93% 29.94 in 9.0 mi Calm Calm - N/A   Clear
2:53 AM 70.0 °F - 68.0 °F 93% 29.94 in 10.0 mi NE 4.6 mph - N/A   Clear
3:53 AM 70.0 °F - 66.9 °F 90% 29.94 in 10.0 mi NE 5.8 mph - N/A   Clear
4:53 AM 70.0 °F - 66.9 °F 90% 29.94 in 10.0 mi NNE 5.8 mph - N/A   Clear
5:53 AM 69.1 °F - 66.9 °F 93% 29.96 in 10.0 mi NE 5.8 mph - N/A   Clear
6:53 AM 69.1 °F - 66.9 °F 93% 29.98 in 9.0 mi NE 5.8 mph - N/A   Clear
7:53 AM 71.1 °F - 68.0 °F 90% 29.99 in 10.0 mi NE 6.9 mph - N/A   Clear
8:53 AM 75.9 °F - 69.1 °F 79% 30.00 in 10.0 mi NE 8.1 mph - N/A   Clear
9:53 AM 81.0 °F 84.4 °F 70.0 °F 69% 30.01 in 10.0 mi ENE 9.2 mph - N/A   Clear
10:53 AM 84.0 °F 87.8 °F 69.1 °F 61% 30.02 in 10.0 mi ENE 16.1 mph 21.9 mph N/A   Clear
11:53 AM 84.9 °F 88.8 °F 69.1 °F 59% 30.01 in 10.0 mi NE 13.8 mph - N/A   Clear
12:53 PM 87.1 °F 91.3 °F 69.1 °F 55% 29.99 in 10.0 mi ENE 12.7 mph - N/A   Scattered Clouds
1:53 PM 88.0 °F 91.4 °F 68.0 °F 51% 29.97 in 10.0 mi NE 9.2 mph - N/A   Scattered Clouds
2:53 PM 88.0 °F 90.7 °F 66.9 °F 49% 29.95 in 10.0 mi East 9.2 mph - N/A   Partly Cloudy
3:53 PM 87.8 °F 91.4 °F 68.0 °F 52% 29.95 in 10.0 mi ENE 9.2 mph - N/A   Partly Cloudy
4:53 PM 87.1 °F 89.9 °F 66.9 °F 51% 29.94 in 10.0 mi ENE 10.4 mph - N/A   Scattered Clouds
5:53 PM 86.0 °F 89.4 °F 68.0 °F 55% 29.93 in 10.0 mi NE 6.9 mph - N/A   Clear
6:53 PM 81.0 °F 84.4 °F 70.0 °F 69% 29.94 in 10.0 mi NNE 3.5 mph - N/A   Clear
7:53 PM 75.9 °F - 71.1 °F 85% 29.94 in 10.0 mi NNE 3.5 mph - N/A   Clear
8:53 PM 75.0 °F - 70.0 °F 84% 29.97 in 10.0 mi East 3.5 mph - N/A   Clear
9:53 PM 75.0 °F - 70.0 °F 84% 29.99 in 10.0 mi Calm Calm - N/A   Clear
10:53 PM 73.9 °F - 70.0 °F 87% 29.99 in 10.0 mi Calm Calm - N/A   Clear